Home > Weather > Chernobyl > Past weeks

Flag for Ukraine Weather for the Past 2 Weeks in Chernobyl, Ukraine

Now
36 °F

Light rain. Overcast.


Feels Like: 26 °F
Forecast: 32 / 42 °F
Wind: 15 mph from Southeast

Location: Hostomel

Current Time: Feb 11, 2016 at 6:58:44 AM

Latest Report: Feb 11, 2016 at 6:00 AM


Visibility: 3 mi

Pressure: 29.50 "Hg

Humidity: 93%

Dew point: 34 °F

Location of ChernobylLocation

Historic Weather in Chernobyl — Graph

°F

Chernobyl Temperature Yesterday

Maximum temperature yesterday: 43 °F (at 9:00 PM)
Minimum temperature yesterday: 36 °F (at 1:00 AM)
Average temperature yesterday: 39 °F

High & Low Weather Summary for the Past Weeks

 TemperatureHumidityPressure
High48 °F (Feb 3, 11:00 AM)100% (Jan 27, 8:00 AM)30.30 "Hg (Jan 27, 8:00 AM)
Low21 °F (Feb 7, 5:00 AM)48% (Feb 6, 1:00 PM)29.50 "Hg (Feb 11, 5:00 AM)
Average36 °F81%29.95 "Hg
* Reported Jan 27 6:00 AM — Feb 11 5:00 AM, Chernobyl, Weather by CustomWeather, © 2016

Note: Actual official high and low records may vary slightly from our data, if they occured in-between our weather recording intervals... More about our weather records

Advertising

Chernobyl Weather History for the Previous 24 Hours

 ConditionsComfort  
Time TempWeatherWind HumidityBarometerVisibility
5:00 AM
Thu, Feb 11
37 °FLight rain. Overcast.15 mph87%29.50 "HgN/A
4:00 AM37 °FLight rain. Overcast.17 mph87%29.53 "HgN/A
3:00 AM37 °FSprinkles. Mostly cloudy.15 mph93%29.53 "Hg6 mi
2:00 AM39 °FSprinkles. Mostly cloudy.17 mph87%29.56 "Hg5 mi
1:00 AM41 °FOvercast.20 mph70%29.53 "HgN/A
12:30 AM41 °FOvercast.17 mph76%29.56 "HgN/A
11:30 PM
Wed, Feb 10
43 °FOvercast.20 mph71%29.56 "HgN/A
11:00 PM43 °FOvercast.20 mph71%29.56 "HgN/A
10:30 PM43 °FOvercast.22 mph71%29.59 "HgN/A
10:00 PM43 °FOvercast.20 mph71%29.59 "HgN/A
9:30 PM43 °FOvercast.17 mph71%29.59 "HgN/A
9:00 PM43 °FOvercast.20 mph71%29.59 "HgN/A
8:30 PM41 °FOvercast.17 mph76%29.59 "HgN/A
8:00 PM41 °FOvercast.17 mph76%29.62 "HgN/A
7:30 PM41 °FOvercast.20 mph81%29.62 "HgN/A
7:00 PM41 °FOvercast.22 mph76%29.65 "HgN/A
6:30 PM41 °FOvercast.20 mph81%29.65 "HgN/A
6:00 PM41 °FOvercast.15 mph81%29.65 "HgN/A
5:30 PM39 °FOvercast.17 mph87%29.68 "HgN/A
5:00 PM41 °FOvercast.20 mph81%29.68 "HgN/A
4:30 PM39 °FLow clouds.20 mph87%29.68 "HgN/A
4:00 PM39 °FOvercast.20 mph87%29.68 "HgN/A
3:30 PM39 °FOvercast.17 mph87%29.71 "HgN/A
3:00 PM41 °FOvercast.17 mph81%29.71 "HgN/A
2:30 PM39 °FOvercast.17 mph87%29.71 "HgN/A
2:00 PM39 °FOvercast.17 mph87%29.71 "HgN/A
1:30 PM39 °FOvercast.15 mph87%29.74 "HgN/A
1:00 PM39 °FOvercast.15 mph87%29.74 "HgN/A
12:30 PM39 °FOvercast.15 mph87%29.77 "HgN/A
12:00 PM39 °FOvercast.13 mph81%29.77 "HgN/A
11:30 AM37 °FLow clouds.15 mph87%29.77 "HgN/A
11:00 AM37 °FLow clouds.15 mph87%29.80 "HgN/A
10:30 AM37 °FLow clouds.15 mph87%29.80 "HgN/A
10:00 AM37 °FLow clouds.17 mph87%29.77 "HgN/A
9:30 AM37 °FLow clouds.15 mph87%29.77 "HgN/A
9:00 AM37 °FLow clouds.17 mph87%29.80 "HgN/A
8:00 AM36 °FLow clouds.17 mph93%29.80 "Hg5 mi
7:00 AM36 °FLow clouds.13 mph93%29.83 "Hg4 mi
6:00 AM36 °FChilly.15 mph93%29.83 "Hg2 mi
Weather by CustomWeather, © 2016

See weather overviewHow to use our weather pages